| time (UTC) | temp F | wind direction | speed MPH | gust MPH | rain 1hr in | rain 24hr in | rain mn in | humidity % | barometer mb |
| 20260905175022 | 73 | 45 | 8.0 | 14.0 | 0.00 | 0.00 | 0.00 | 34 | 1026.2 |
| 20260905174042 | 75 | 45 | 8.0 | 14.0 | 0.00 | 0.00 | 0.00 | 31 | 1026.4 |
| 20260905173022 | 78 | 180 | 2.0 | 6.0 | 0.00 | 0.00 | 0.00 | 25 | 1026.9 |
| 20260905172022 | 77 | 158 | 3.0 | 8.0 | 0.00 | 0.00 | 0.00 | 24 | 1026.9 |
| 20260905171022 | 76 | 158 | 3.0 | 6.0 | 0.00 | 0.00 | 0.00 | 25 | 1026.6 |
| 20260905170042 | 76 | 203 | 5.0 | 8.0 | 0.00 | 0.00 | 0.00 | 26 | 1026.4 |
| 20260905165022 | 76 | 225 | 2.0 | 6.0 | 0.00 | 0.00 | 0.00 | 27 | 1026.7 |
| 20260905164022 | 75 | 180 | 6.0 | 10.0 | 0.00 | 0.00 | 0.00 | 28 | 1026.4 |
| 20260905163017 | 75 | 180 | 6.0 | 15.0 | 0.00 | 0.00 | 0.00 | 28 | 1026.4 |
| 20260905162022 | 76 | 180 | 3.0 | 9.0 | 0.00 | 0.00 | 0.00 | 28 | 1026.5 |
| 20260905161022 | 74 | 203 | 5.0 | 12.0 | 0.00 | 0.00 | 0.00 | 30 | 1026.4 |
| 20260905160017 | 73 | 180 | 6.0 | 18.0 | 0.00 | 0.00 | 0.00 | 31 | 1026.4 |
| 20260905155016 | 72 | 203 | 8.0 | 15.0 | 0.00 | 0.00 | 0.00 | 31 | 1026.3 |
| 20260905154022 | 73 | 180 | 7.0 | 12.0 | 0.00 | 0.00 | 0.00 | 31 | 1026.4 |
| 20260905153036 | 72 | 203 | 8.0 | 15.0 | 0.00 | 0.00 | 0.00 | 31 | 1026.2 |
| 20260905152022 | 72 | 203 | 5.0 | 11.0 | 0.00 | 0.00 | 0.00 | 32 | 1026.6 |
| 20260905151022 | 71 | 203 | 5.0 | 10.0 | 0.00 | 0.00 | 0.00 | 33 | 1026.4 |
| 20260905150022 | 70 | 203 | 5.0 | 9.0 | 0.00 | 0.00 | 0.00 | 35 | 1026.5 |
| 20260905145042 | 69 | 203 | 4.0 | 9.0 | 0.00 | 0.00 | 0.00 | 35 | 1026.6 |
| 20260905144022 | 70 | 180 | 4.0 | 7.0 | 0.00 | 0.00 | 0.00 | 35 | 1026.9 |
| 20260905143022 | 69 | 203 | 5.0 | 10.0 | 0.00 | 0.00 | 0.00 | 35 | 1026.7 |
| 20260905142022 | 69 | 203 | 3.0 | 5.0 | 0.00 | 0.00 | 0.00 | 35 | 1026.9 |
| 20260905141022 | 68 | 203 | 4.0 | 6.0 | 0.00 | 0.00 | 0.00 | 36 | 1026.7 |
| 20260905140022 | 67 | 203 | 4.0 | 6.0 | 0.00 | 0.00 | 0.00 | 36 | 1026.5 |
| 20260905135042 | 66 | 203 | 4.0 | 7.0 | 0.00 | 0.00 | 0.00 | 37 | 1026.4 |
| 20260905134022 | 65 | 203 | 4.0 | 8.0 | 0.00 | 0.00 | 0.00 | 37 | 1026.1 |
| 20260905133102 | 65 | 203 | 4.0 | 8.0 | 0.00 | 0.00 | 0.00 | 38 | 1025.9 |
| 20260905132016 | 64 | 225 | 5.0 | 9.0 | 0.00 | 0.00 | 0.00 | 38 | 1025.9 |
| 20260905131022 | 64 | 225 | 4.0 | 10.0 | 0.00 | 0.00 | 0.00 | 39 | 1025.9 |
| 20260905130022 | 63 | 225 | 6.0 | 10.0 | 0.00 | 0.00 | 0.00 | 39 | 1025.8 |
| 20260905125022 | 63 | 225 | 5.0 | 9.0 | 0.00 | 0.00 | 0.00 | 40 | 1025.7 |
| 20260905124041 | 62 | 225 | 5.0 | 9.0 | 0.00 | 0.00 | 0.00 | 39 | 1025.5 |
| 20260905123022 | 63 | 225 | 5.0 | 10.0 | 0.00 | 0.00 | 0.00 | 39 | 1025.5 |
| 20260905122022 | 63 | 225 | 6.0 | 11.0 | 0.00 | 0.00 | 0.00 | 39 | 1025.5 |
| 20260905121021 | 62 | 225 | 5.0 | 9.0 | 0.00 | 0.00 | 0.00 | 39 | 1025.6 |
| 20260905120019 | 62 | 225 | 4.0 | 12.0 | 0.00 | 0.00 | 0.00 | 40 | 1025.6 |
| 20260905115016 | 62 | 225 | 5.0 | 9.0 | 0.00 | 0.00 | 0.00 | 40 | 1025.6 |
| 20260905114022 | 62 | 203 | 4.0 | 8.0 | 0.00 | 0.00 | 0.00 | 39 | 1025.6 |
| 20260905113021 | 62 | 225 | 6.0 | 9.0 | 0.00 | 0.00 | 0.00 | 40 | 1025.6 |
| 20260905112022 | 61 | 225 | 5.0 | 10.0 | 0.00 | 0.00 | 0.00 | 42 | 1025.4 |
| 20260905111022 | 61 | 203 | 6.0 | 9.0 | 0.00 | 0.00 | 0.00 | 44 | 1025.5 |
| 20260905110022 | 61 | 203 | 5.0 | 7.0 | 0.00 | 0.00 | 0.00 | 44 | 1025.5 |
| 20260905105022 | 61 | 225 | 5.0 | 7.0 | 0.00 | 0.00 | 0.00 | 44 | 1025.7 |
| 20260905104021 | 62 | 225 | 5.0 | 8.0 | 0.00 | 0.00 | 0.00 | 44 | 1025.7 |
| 20260905103021 | 62 | 225 | 5.0 | 9.0 | 0.00 | 0.00 | 0.00 | 43 | 1025.6 |
| 20260905102021 | 62 | 225 | 5.0 | 11.0 | 0.00 | 0.00 | 0.00 | 43 | 1025.6 |
| 20260905101021 | 62 | 225 | 5.0 | 9.0 | 0.00 | 0.00 | 0.00 | 44 | 1025.5 |
| 20260905100042 | 62 | 225 | 6.0 | 13.0 | 0.00 | 0.00 | 0.00 | 44 | 1025.5 |
| 20260905095042 | 62 | 225 | 5.0 | 8.0 | 0.00 | 0.00 | 0.00 | 45 | 1025.4 |
| 20260905094021 | 61 | 225 | 6.0 | 11.0 | 0.00 | 0.00 | 0.00 | 46 | 1025.5 |
| 20260905093021 | 61 | 225 | 6.0 | 10.0 | 0.00 | 0.00 | 0.00 | 46 | 1025.2 |
| 20260905092017 | 61 | 248 | 4.0 | 8.0 | 0.00 | 0.00 | 0.00 | 47 | 1025.3 |
| 20260905091021 | 60 | 248 | 4.0 | 6.0 | 0.00 | 0.00 | 0.00 | 48 | 1025.3 |
| 20260905090021 | 61 | 248 | 3.0 | 4.0 | 0.00 | 0.00 | 0.00 | 47 | 1025.2 |
| 20260905085041 | 61 | 225 | 4.0 | 9.0 | 0.00 | 0.00 | 0.00 | 47 | 1025.1 |
| 20260905084021 | 61 | 225 | 5.0 | 10.0 | 0.00 | 0.00 | 0.00 | 47 | 1025.2 |
| 20260905083016 | 61 | 225 | 6.0 | 10.0 | 0.00 | 0.00 | 0.00 | 47 | 1025.2 |
| 20260905082021 | 60 | 225 | 6.0 | 10.0 | 0.00 | 0.00 | 0.00 | 49 | 1025.2 |
| 20260905081021 | 60 | 203 | 5.0 | 7.0 | 0.00 | 0.00 | 0.00 | 50 | 1025.1 |
| 20260905080016 | 58 | 225 | 7.0 | 11.0 | 0.00 | 0.00 | 0.00 | 52 | 1025.1 |
| 20260905075016 | 58 | 203 | 7.0 | 11.0 | 0.00 | 0.00 | 0.00 | 53 | 1024.8 |
| 20260905074021 | 58 | 203 | 6.0 | 10.0 | 0.00 | 0.00 | 0.00 | 52 | 1024.8 |
| 20260905073016 | 58 | 203 | 5.0 | 7.0 | 0.00 | 0.00 | 0.00 | 51 | 1024.8 |
| 20260905072021 | 59 | 225 | 7.0 | 15.0 | 0.00 | 0.00 | 0.00 | 50 | 1025.0 |
| 20260905071021 | 59 | 225 | 8.0 | 14.0 | 0.00 | 0.00 | 0.00 | 50 | 1025.0 |
| 20260905070021 | 60 | 225 | 10.0 | 14.0 | 0.00 | 0.00 | 0.00 | 49 | 1025.1 |
| 20260905065021 | 60 | 225 | 7.0 | 11.0 | 0.00 | 0.00 | 0.00 | 48 | 1025.3 |
| 20260905064021 | 60 | 225 | 7.0 | 11.0 | 0.00 | 0.00 | 0.00 | 47 | 1025.3 |
| 20260905063016 | 60 | 225 | 5.0 | 10.0 | 0.00 | 0.00 | 0.00 | 47 | 1025.3 |
| 20260905062022 | 61 | 225 | 6.0 | 8.0 | 0.00 | 0.00 | 0.00 | 46 | 1025.1 |
| 20260905061041 | 60 | 203 | 6.0 | 9.0 | 0.00 | 0.00 | 0.00 | 47 | 1025.2 |
| 20260905060021 | 60 | 203 | 6.0 | 9.0 | 0.00 | 0.00 | 0.00 | 48 | 1025.0 |
| 20260905055021 | 59 | 225 | 6.0 | 10.0 | 0.00 | 0.00 | 0.00 | 50 | 1024.8 |
| 20260905054015 | 59 | 203 | 6.0 | 8.0 | 0.00 | 0.00 | 0.00 | 49 | 1024.8 |
| 20260905053021 | 60 | 203 | 5.0 | 7.0 | 0.00 | 0.00 | 0.00 | 48 | 1024.8 |
| 20260905052021 | 60 | 225 | 4.0 | 6.0 | 0.00 | 0.00 | 0.00 | 47 | 1024.9 |
| 20260905051021 | 61 | 203 | 5.0 | 7.0 | 0.00 | 0.00 | 0.00 | 46 | 1024.9 |
| 20260905050015 | 61 | 203 | 5.0 | 9.0 | 0.00 | 0.00 | 0.00 | 46 | 1024.9 |
| 20260905045021 | 61 | 203 | 6.0 | 7.0 | 0.00 | 0.00 | 0.00 | 46 | 1025.0 |
| 20260905044021 | 61 | 225 | 4.0 | 6.0 | 0.00 | 0.00 | 0.00 | 45 | 1025.0 |
| 20260905043021 | 64 | 248 | 2.0 | 3.0 | 0.00 | 0.00 | 0.00 | 41 | 1025.3 |
| 20260905042041 | 62 | 225 | 4.0 | 7.0 | 0.00 | 0.00 | 0.00 | 43 | 1025.2 |
| 20260905041021 | 62 | 203 | 6.0 | 9.0 | 0.00 | 0.00 | 0.00 | 43 | 1025.2 |
| 20260905040021 | 63 | 225 | 5.0 | 8.0 | 0.00 | 0.00 | 0.00 | 43 | 1025.3 |
| 20260905035021 | 63 | 225 | 3.0 | 5.0 | 0.00 | 0.00 | 0.00 | 42 | 1025.3 |
| 20260905034021 | 63 | 225 | 4.0 | 7.0 | 0.00 | 0.00 | 0.00 | 42 | 1025.3 |
| 20260905033015 | 64 | 225 | 5.0 | 8.0 | 0.00 | 0.00 | 0.00 | 41 | 1025.4 |
| 20260905032021 | 64 | 203 | 4.0 | 6.0 | 0.00 | 0.00 | 0.00 | 41 | 1025.3 |
| 20260905031015 | 65 | 225 | 3.0 | 5.0 | 0.00 | 0.00 | 0.00 | 38 | 1025.3 |
| 20260905030021 | 67 | 225 | 3.0 | 5.0 | 0.00 | 0.00 | 0.00 | 37 | 1025.4 |
| 20260905025021 | 68 | 270 | 1.0 | 2.0 | 0.00 | 0.00 | 0.00 | 36 | 1025.4 |
| 20260905024021 | 68 | 203 | 2.0 | 3.0 | 0.00 | 0.00 | 0.00 | 35 | 1025.3 |
| 20260905023015 | 70 | 0.0 | 2.0 | 0.00 | 0.00 | 0.00 | 34 | 1025.4 | |
| 20260905022015 | 70 | 23 | 1.0 | 2.0 | 0.00 | 0.00 | 0.00 | 34 | 1024.9 |
| 20260905021021 | 70 | 315 | 2.0 | 3.0 | 0.00 | 0.00 | 0.00 | 34 | 1024.8 |
| 20260905020021 | 71 | 338 | 2.0 | 2.0 | 0.00 | 0.00 | 0.00 | 34 | 1024.8 |
| 20260905015020 | 71 | 68 | 1.0 | 2.0 | 0.00 | 0.00 | 0.00 | 34 | 1024.5 |
| 20260905014015 | 71 | 113 | 1.0 | 2.0 | 0.00 | 0.00 | 0.00 | 33 | 1024.5 |
| 20260905013021 | 72 | 113 | 2.0 | 4.0 | 0.00 | 0.00 | 0.00 | 33 | 1024.3 |
| 20260905012020 | 72 | 113 | 2.0 | 6.0 | 0.00 | 0.00 | 0.00 | 32 | 1024.5 |
| 20260905011035 | 72 | 135 | 2.0 | 4.0 | 0.00 | 0.00 | 0.00 | 31 | 1024.5 |
| 20260905010020 | 73 | 113 | 3.0 | 7.0 | 0.00 | 0.00 | 0.00 | 30 | 1024.4 |
| 20260905005020 | 73 | 113 | 3.0 | 8.0 | 0.00 | 0.00 | 0.00 | 29 | 1024.6 |
| 20260905004020 | 74 | 113 | 1.0 | 3.0 | 0.00 | 0.00 | 0.00 | 27 | 1024.6 |
| 20260905003021 | 74 | 113 | 1.0 | 2.0 | 0.00 | 0.00 | 0.00 | 26 | 1024.5 |
| 20260905002020 | 74 | 0.0 | 2.0 | 0.00 | 0.00 | 0.00 | 26 | 1024.5 | |
| 20260905001015 | 74 | 113 | 1.0 | 2.0 | 0.00 | 0.00 | 0.00 | 26 | 1024.5 |
| 20260905000020 | 74 | 0.0 | 2.0 | 0.00 | 0.00 | 0.00 | 26 | 1024.4 | |
| 20260904235015 | 74 | 23 | 2.0 | 4.0 | 0.00 | 0.00 | 0.00 | 26 | 1024.4 |
| 20260904234021 | 74 | 23 | 2.0 | 5.0 | 0.00 | 0.00 | 0.00 | 26 | 1024.3 |
| 20260904233040 | 74 | 0 | 1.0 | 3.0 | 0.00 | 0.00 | 0.00 | 26 | 1024.3 |
| 20260904232015 | 74 | 45 | 1.0 | 2.0 | 0.00 | 0.00 | 0.00 | 26 | 1024.1 |
| 20260904231021 | 74 | 0 | 2.0 | 4.0 | 0.00 | 0.00 | 0.00 | 26 | 1024.0 |
| 20260904230015 | 74 | 0 | 3.0 | 5.0 | 0.00 | 0.00 | 0.00 | 26 | 1024.0 |
| 20260904225020 | 75 | 68 | 2.0 | 9.0 | 0.00 | 0.00 | 0.00 | 26 | 1024.2 |
| 20260904224055 | 75 | 23 | 4.0 | 10.0 | 0.00 | 0.00 | 0.00 | 26 | 1024.1 |
| 20260904223015 | 75 | 45 | 3.0 | 10.0 | 0.00 | 0.00 | 0.00 | 26 | 1024.2 |
| 20260904222015 | 75 | 0 | 8.0 | 12.0 | 0.00 | 0.00 | 0.00 | 26 | 1024.2 |
| 20260904221015 | 75 | 23 | 6.0 | 12.0 | 0.00 | 0.00 | 0.00 | 26 | 1024.0 |
| 20260904220040 | 75 | 338 | 7.0 | 14.0 | 0.00 | 0.00 | 0.00 | 26 | 1024.1 |
| 20260904215015 | 75 | 45 | 3.0 | 10.0 | 0.00 | 0.00 | 0.00 | 26 | 1024.1 |
| 20260904214020 | 75 | 0 | 6.0 | 11.0 | 0.00 | 0.00 | 0.00 | 26 | 1024.0 |
| 20260904213035 | 74 | 23 | 6.0 | 11.0 | 0.00 | 0.00 | 0.00 | 26 | 1023.8 |
| 20260904212021 | 75 | 45 | 5.0 | 12.0 | 0.00 | 0.00 | 0.00 | 25 | 1024.1 |
| 20260904211020 | 75 | 135 | 2.0 | 7.0 | 0.00 | 0.00 | 0.00 | 25 | 1024.0 |
| 20260904210020 | 76 | 113 | 5.0 | 12.0 | 0.00 | 0.00 | 0.00 | 25 | 1024.2 |
| 20260904205015 | 77 | 90 | 5.0 | 11.0 | 0.00 | 0.00 | 0.00 | 24 | 1024.5 |
| 20260904204015 | 77 | 113 | 4.0 | 12.0 | 0.00 | 0.00 | 0.00 | 24 | 1024.4 |
| 20260904203017 | 78 | 158 | 4.0 | 14.0 | 0.00 | 0.00 | 0.00 | 24 | 1024.7 |
| 20260904202022 | 76 | 135 | 6.0 | 19.0 | 0.00 | 0.00 | 0.00 | 25 | 1024.6 |
| 20260904201023 | 76 | 113 | 8.0 | 16.0 | 0.00 | 0.00 | 0.00 | 25 | 1024.6 |
| 20260904200023 | 76 | 135 | 9.0 | 15.0 | 0.00 | 0.00 | 0.00 | 25 | 1024.8 |
| 20260904195037 | 76 | 158 | 8.0 | 19.0 | 0.00 | 0.00 | 0.00 | 25 | 1024.7 |
| 20260904194022 | 76 | 135 | 4.0 | 14.0 | 0.00 | 0.00 | 0.00 | 25 | 1024.7 |
| 20260904193022 | 76 | 23 | 4.0 | 10.0 | 0.00 | 0.00 | 0.00 | 26 | 1024.6 |
| 20260904192017 | 75 | 45 | 3.0 | 9.0 | 0.00 | 0.00 | 0.00 | 27 | 1024.6 |
| 20260904191017 | 76 | 90 | 3.0 | 8.0 | 0.00 | 0.00 | 0.00 | 24 | 1024.7 |
| 20260904190017 | 75 | 158 | 1.0 | 2.0 | 0.00 | 0.00 | 0.00 | 25 | 1024.7 |
| 20260904185042 | 74 | 68 | 3.0 | 8.0 | 0.00 | 0.00 | 0.00 | 26 | 1024.6 |
| 20260904184042 | 74 | 248 | 2.0 | 7.0 | 0.00 | 0.00 | 0.00 | 26 | 1024.8 |
| 20260904183042 | 76 | 180 | 5.0 | 10.0 | 0.00 | 0.00 | 0.00 | 25 | 1025.0 |
| 20260904182016 | 75 | 270 | 2.0 | 5.0 | 0.00 | 0.00 | 0.00 | 25 | 1025.2 |
| 20260904181017 | 75 | 203 | 4.0 | 9.0 | 0.00 | 0.00 | 0.00 | 25 | 1025.2 |
| 20260904180022 | 74 | 270 | 5.0 | 11.0 | 0.00 | 0.00 | 0.00 | 26 | 1025.1 |